sat.trackr.live / text

‹ back to catalog

YAOGAN-14

NORAD 38257 · 2012-021A

PAYLOAD ACTIVE UNKNOWN

§ Identity

Operator
Country
PRC
Launch date
2012-05-10
Launch site
TAISC
Launch vehicle
Mass (kg)
RCS (m²)
5.41

External: N2YO · Heavens-Above · Gunter

§ Orbital elements

Epoch: 2026-09-20T05:19:40.156320Z

Period
94.19 min
Inclination
97.3162°
Eccentricity
0.0004403
Mean motion
15.28888131 rev/d
Perigee alt
476.1 km
Apogee alt
482.2 km
Semi-major
6,857.3 km
B*
1.6586e-4
RAAN
38.7269°
Arg perigee
187.4799°
Mean anomaly
172.6376°
Rev number
80,033

§ Raw data

YAOGAN-141 38257U 12021A   26263.22199255  .00004581  00000+0  16586-3 0  99912 38257  97.3162  38.7269 0004403 187.4799 172.6376 15.28888131800337

JSON: /api/v1/satellites/38257 · /tle

For live sub-satellite position, see the globe view (requires WebGL).

§ Visibility from observer

Set your observer location to see the next 7 days of passes ≥ 10°. The values pass through the URL so the page stays shareable.

No JS? Fill the form by hand. The geolocation button needs JavaScript.